MB7UWH-13 Weather Reports


time (UTC)temp
C
wind
direction
speed
KPH
gust
KPH
rain 1hr
cm
rain 24hr
cm
rain mn
cm
humidity
%
barometer
mb
20260902014532 16 243 6.4 11.3 0.00 0.00 0.00 79 1019.5
20260902013530 16 282 4.8 11.3 0.00 0.00 0.00 79 1019.6
20260902012528 16 262 4.8 9.7 0.00 0.00 0.00 79 1019.7
20260902011606 16 280 3.2 8.0 0.00 0.00 0.00 80 1019.8
20260902010544 16 260 4.8 8.0 0.00 0.00 0.00 79 1020.0
20260902005542 16 205 3.2 9.7 0.00 0.00 0.00 79 1020.0
20260902004521 16 267 8.0 12.9 0.00 0.00 0.00 79 1020.2
20260902003519 16 264 11.3 17.7 0.00 0.00 0.00 78 1020.1
20260902002517 16 268 8.0 14.5 0.00 0.00 0.00 78 1020.1
20260902001535 16 264 9.7 16.1 0.00 0.00 0.00 78 1020.2
20260902000534 16 269 9.7 16.1 0.00 0.00 0.00 78 1020.2
20260901235552 16 265 8.0 14.5 0.00 0.00 0.00 77 1020.1
20260901234530 16 266 8.0 12.9 0.00 0.00 0.00 77 1020.0
20260901233528 16 272 8.0 16.1 0.00 0.00 0.00 78 1020.1
20260901232526 16 270 8.0 12.9 0.00 0.00 0.00 79 1020.1
20260901231524 16 267 8.0 14.5 0.00 0.00 0.00 78 1020.2
20260901230522 16 268 8.0 12.9 0.00 0.00 0.00 78 1020.3
20260901225521 16 267 6.4 11.3 0.00 0.00 0.00 77 1020.3
20260901224539 16 207 3.2 8.0 0.00 0.00 0.00 76 1020.3
20260901223517 16 269 4.8 9.7 0.00 0.00 0.00 76 1020.4
20260901222535 16 267 8.0 17.7 0.00 0.00 0.00 76 1020.4
20260901221553 16 263 8.0 14.5 0.00 0.00 0.00 75 1020.4
20260901220532 16 256 9.7 14.5 0.00 0.00 0.00 75 1020.3
20260901215550 16 256 6.4 11.3 0.00 0.00 0.00 74 1020.3
20260901214528 16 265 4.8 9.7 0.00 0.00 0.00 73 1020.3
20260901213526 16 243 3.2 6.4 0.00 0.00 0.00 73 1020.5
20260901212524 16 199 3.2 6.4 0.00 0.00 0.00 72 1020.5
20260901211522 16 268 3.2 8.0 0.00 0.00 0.00 71 1020.6
20260901210541 16 274 3.2 9.7 0.00 0.00 0.00 71 1020.6
20260901205519 16 262 1.6 4.8 0.00 0.00 0.00 70 1020.5
20260901204517 16 264 4.8 8.0 0.00 0.00 0.00 70 1020.5
20260901203535 17 279 3.2 6.4 0.00 0.00 0.00 70 1020.4
20260901202553 17 270 4.8 8.0 0.00 0.00 0.00 70 1020.4
20260901201531 16 233 3.2 8.0 0.00 0.00 0.00 74 1020.3
20260901200530 17 127 1.6 3.2 0.00 0.00 0.00 73 1020.3
20260901195528 17 287 1.6 4.8 0.00 0.00 0.00 72 1020.4
20260901194526 17 279 1.6 4.8 0.00 0.00 0.00 72 1020.2
20260901193524 17 137 1.6 3.2 0.00 0.00 0.00 72 1020.2
20260901192522 17 158 1.6 4.8 0.00 0.00 0.00 71 1020.3
20260901191601 17 131 1.6 4.8 0.00 0.00 0.00 70 1020.3
20260901190519 17 260 1.6 3.2 0.00 0.00 0.00 69 1020.2
20260901185517 18 284 3.2 4.8 0.00 0.00 0.00 69 1020.1
20260901184535 18 292 4.8 9.7 0.00 0.00 0.00 69 1020.2
20260901183533 18 292 3.2 4.8 0.00 0.00 0.00 69 1020.2
20260901182531 18 317 1.6 4.8 0.00 0.00 0.00 69 1020.1
20260901181530 18 304 3.2 8.0 0.00 0.00 0.00 69 1020.1
20260901180528 18 307 4.8 9.7 0.00 0.00 0.00 69 1020.2
20260901175526 18 299 3.2 6.4 0.00 0.00 0.00 68 1020.1
20260901174524 18 306 3.2 9.7 0.00 0.00 0.00 68 1020.0
20260901173522 19 301 4.8 11.3 0.00 0.00 0.00 65 1020.0
20260901172520 20 267 12.9 25.7 0.00 0.00 0.00 58 1019.9
20260901171519 20 267 6.4 9.7 0.00 0.00 0.00 58 1019.9
20260901170517 20 266 8.0 14.5 0.00 0.00 0.00 58 1019.8
20260901165535 20 277 9.7 20.9 0.00 0.00 0.00 57 1019.9
20260901164533 20 263 12.9 20.9 0.00 0.00 0.00 57 1020.0
20260901163531 20 258 12.9 19.3 0.00 0.00 0.00 55 1019.9
20260901162550 20 268 9.7 17.7 0.00 0.00 0.00 55 1019.9
20260901161548 20 273 9.7 16.1 0.00 0.00 0.00 54 1020.1
20260901160526 20 273 9.7 19.3 0.00 0.00 0.00 54 1020.0
20260901155527 20 278 11.3 22.5 0.00 0.00 0.00 53 1020.1
20260901154522 20 277 12.9 24.1 0.00 0.00 0.00 52 1020.2
20260901153520 20 267 14.5 22.5 0.00 0.00 0.00 55 1020.1
20260901152519 19 271 14.5 25.7 0.00 0.00 0.00 56 1020.0
20260901151517 19 260 12.9 27.4 0.00 0.00 0.00 56 1020.2
20260901150535 19 273 16.1 27.4 0.00 0.00 0.00 56 1020.3
20260901145533 19 263 12.9 27.4 0.00 0.00 0.00 58 1020.0
20260901144531 19 267 16.1 24.1 0.00 0.00 0.00 59 1020.3
20260901143529 19 265 16.1 30.6 0.00 0.00 0.00 61 1020.4
20260901142528 20 265 17.7 30.6 0.00 0.00 0.00 57 1020.4
20260901141526 20 267 14.5 22.5 0.00 0.00 0.00 55 1020.4
20260901140545 20 268 12.9 25.7 0.00 0.00 0.00 53 1020.2
20260901135522 20 273 11.3 24.1 0.00 0.00 0.00 53 1020.3
20260901134520 20 256 12.9 25.7 0.00 0.00 0.00 53 1020.4
20260901133519 20 252 14.5 27.4 0.00 0.00 0.00 52 1020.2
20260901132517 20 263 16.1 29.0 0.00 0.00 0.00 54 1020.4
20260901131535 20 268 14.5 29.0 0.00 0.00 0.00 54 1020.4
20260901130533 20 264 14.5 29.0 0.00 0.00 0.00 54 1020.4
20260901125531 20 267 16.1 29.0 0.00 0.00 0.00 54 1020.3
20260901124529 20 270 14.5 29.0 0.00 0.00 0.00 54 1020.3
20260901123528 20 272 14.5 27.4 0.00 0.00 0.00 54 1020.3
20260901122526 20 270 12.9 25.7 0.00 0.00 0.00 53 1020.4
20260901121524 20 273 16.1 30.6 0.00 0.00 0.00 54 1020.4
20260901120542 20 268 16.1 27.4 0.00 0.00 0.00 53 1020.5
20260901115521 20 268 14.5 24.1 0.00 0.00 0.00 54 1020.4
20260901114519 19 261 16.1 27.4 0.00 0.00 0.00 55 1020.4
20260901113517 19 268 17.7 29.0 0.00 0.00 0.00 56 1020.3
20260901112535 18 276 17.7 29.0 0.00 0.00 0.00 55 1020.4
20260901111533 19 271 14.5 27.4 0.00 0.00 0.00 55 1020.6
20260901110531 18 269 14.5 24.1 0.00 0.00 0.00 57 1020.6
20260901105529 18 263 12.9 20.9 0.00 0.00 0.00 58 1020.6
20260901104528 18 254 16.1 29.0 0.00 0.00 0.00 60 1020.7
20260901103526 18 260 16.1 24.1 0.00 0.00 0.00 61 1020.8
20260901102524 18 266 16.1 25.7 0.00 0.00 0.00 63 1021.0
20260901101522 17 264 9.7 24.1 0.00 0.00 0.00 63 1021.0
20260901100520 17 277 12.9 24.1 0.00 0.00 0.00 62 1021.1
20260901095518 17 262 12.9 19.3 0.00 0.00 0.00 63 1021.0
20260901094537 17 270 9.7 17.7 0.00 0.00 0.00 65 1021.1
20260901093535 17 264 11.3 19.3 0.00 0.00 0.00 66 1021.2
20260901092533 16 241 8.0 19.3 0.00 0.00 0.00 70 1021.3
20260901091531 17 269 11.3 17.7 0.00 0.00 0.00 70 1021.2
20260901090530 16 258 11.3 20.9 0.00 0.00 0.00 72 1021.2
20260901085528 16 264 11.3 24.1 0.00 0.00 0.00 73 1021.2
20260901084626 16 260 12.9 20.9 0.00 0.00 0.00 74 1021.2
20260901083524 16 255 9.7 16.1 0.00 0.00 0.00 75 1021.3
20260901082522 16 271 9.7 16.1 0.00 0.00 0.00 78 1021.2
20260901081520 15 256 9.7 14.5 0.00 0.00 0.00 77 1021.2
20260901080519 16 262 8.0 14.5 0.00 0.00 0.00 77 1021.0
20260901075557 15 248 6.4 12.9 0.00 0.00 0.00 77 1021.1
20260901074535 15 267 6.4 11.3 0.00 0.00 0.00 79 1021.1
20260901073533 15 260 12.9 22.5 0.00 0.00 0.00 78 1021.0
20260901072531 15 265 9.7 17.7 0.00 0.00 0.00 77 1021.1
20260901071529 14 259 6.4 11.3 0.00 0.00 0.00 77 1021.0
20260901070528 14 275 6.4 9.7 0.00 0.00 0.00 74 1020.8
20260901065526 14 281 3.2 9.7 0.00 0.00 0.00 74 1020.7
20260901064524 13 158 3.2 8.0 0.00 0.00 0.00 77 1020.8
20260901063542 12 150 3.2 6.4 0.00 0.00 0.00 78 1020.8
20260901062520 12 0.0 1.6 0.00 0.00 0.00 79 1020.6
20260901061519 11 90 3.2 6.4 0.00 0.00 0.00 83 1020.7
20260901060517 11 147 1.6 6.4 0.00 0.00 0.00 86 1020.6
20260901055535 10 97 3.2 8.0 0.00 0.00 0.00 86 1020.5
20260901054533 10 305 0.0 3.2 0.00 0.00 0.00 88 1020.4
20260901053531 10 29 3.2 4.8 0.00 0.00 0.00 88 1020.3
20260901052529 10 39 3.2 8.0 0.00 0.00 0.00 88 1020.2
20260901051528 10 124 1.6 6.4 0.00 0.00 0.00 88 1020.2
20260901050546 10 4 3.2 9.7 0.00 0.00 0.00 88 1020.1
20260901045524 10 92 3.2 6.4 0.00 0.00 0.00 88 1020.1
20260901044522 10 72 3.2 8.0 0.00 0.00 0.00 88 1020.1
20260901043520 10 114 3.2 6.4 0.00 0.00 0.00 87 1020.1
20260901042518 10 142 3.2 6.4 0.00 0.00 0.00 87 1020.0
20260901041516 10 82 1.6 6.4 0.00 0.00 0.00 87 1020.1
20260901040535 11 58 1.6 4.8 0.00 0.00 0.00 86 1019.9
20260901035533 11 26 4.8 8.0 0.00 0.00 0.00 85 1020.0
20260901034531 11 134 1.6 4.8 0.00 0.00 0.00 86 1019.9
20260901033529 11 357 1.6 4.8 0.00 0.00 0.00 86 1019.9
20260901032547 11 94 0.0 4.8 0.00 0.00 0.00 84 1019.9
20260901031526 11 304 0.0 3.2 0.00 0.00 0.00 85 1020.0
20260901030524 11 0.0 0.0 0.00 0.00 0.00 87 1020.0
20260901025522 10 0.0 1.6 0.00 0.00 0.00 87 1020.0
20260901024540 11 0.0 1.6 0.00 0.00 0.00 87 1020.0
20260901023518 11 0.0 1.6 0.00 0.00 0.00 86 1020.0
20260901022517 11 65 0.0 1.6 0.00 0.00 0.00 85 1020.0
20260901021535 11 0.0 1.6 0.00 0.00 0.00 84 1020.0
20260901020613 11 0.0 1.6 0.00 0.00 0.00 85 1020.0
20260901015551 11 266 0.0 1.6 0.00 0.00 0.00 83 1020.1